www.pogodaiklimat.ru

Погода и климат >> Архив погоды >> Таиланд >> Сурин Агромет


ПОГОДА в Сурин Агромете

  • Прогноз погоды в Сурин Агромете
  • Монитор погоды в Сурин Агромете

АРХИВ ПОГОДЫ в Сурин Агромете

Время (UTC), дата Ветер
(напр.,м/с)
 
Видим.   Явления Облачность Т
(С)
Тd
(С)
f
(%)
Тe
(С)
Тes
(С)
Комфортность P
(гПа)
Po
(гПа)
Тmin
(С)
Tmax
(С)
R
(мм)
R24
(мм)
S
(см)
00 16.04 штиль 0 8000 м дымка 8/3 600 м
[Sc Cs]
+25.6 +24.7 95 +36 +37 очень
душно
1010.4 993.8 +24.4 9
03 16.04 штиль 0 9000 м мгла 3/0
[Cs]
+32.8 +24.6 62 +46 +66 опасность
перегрева
1011.4 995.2
06 16.04 ЮВ 4 9000 м мгла 5/3 600 м
[Cu med, cong Cs]
+36.8 +24.7 50 +49 +59 опасность
перегрева
1008.5 992.5
09 16.04 С 4 10 км 6/3 600 м
[Cu med, cong Cs]
+32.5 +26.2 69 +48 +51 опасность
перегрева
1005.3 989.2
12 16.04 штиль 0 8000 м гроза без осадков 8/3 300 м
[Cb cap Ac As Cs]
+33.3 +25.1 62 +47 +47 опасность
перегрева
1007.4 991.3 +38.8
15 16.04 штиль 0 7000 м дымка 3/0
[Cs]
+30.2 +24.9 73 +43 +43 опасность
перегрева
1009.4 993.1
18 16.04 штиль 0 7000 м дымка 4/0
[Cs]
+29.0 +24.7 78 +41 +41 опасность
перегрева
1009.5 993.1
21 16.04 штиль 0 7000 м дымка 3/0
[Cs]
+27.6 +24.9 85 +39 +39 очень
душно
1008.5 992.1
00 17.04 штиль 0 6000 м дымка ясно +27.5 +25.4 88 +40 +42 очень
душно
1009.7 993.3 +26.0
03 17.04 Ю 4 10 км ясно +35.8 +24.3 52 +48 +59 опасность
перегрева
1010.7 994.7
06 17.04 ЮВ 3 12 км 3/3 600 м
[Sc]
+39.0 +23.4 41 +49 +61 опасность
перегрева
1008.2 992.4
09 17.04 ЮВ 1 12 км 3/3 600 м
[Sc]
+38.3 +25.4 48 +52 +58 опасность
перегрева
1004.5 988.7
12 17.04 В 2 7000 м гроза без осадков 8/5 600 м
[Cb cap Ac As Cs]
+31.5 +22.3 58 +41 +41 опасность
перегрева
1007.4 991.2 +39.8
15 17.04 штиль 0 7000 м дымка {гроза} 3/0
[Cs]
+29.3 +24.3 75 +41 +41 опасность
перегрева
1009.5 993.1
18 17.04 штиль 0 6000 м дымка {гроза} ясно +28.5 +24.2 78 +40 +40 очень
душно
1008.4 992.1
21 17.04 штиль 0 6000 м дымка ясно +27.8 +24.2 81 +39 +39 очень
душно
1006.8 990.4
00 18.04 штиль 0 9000 м дымка 8/0
[Cs]
+26.6 +23.5 83 +36 +38 очень
душно
1011.5 995.0 +24.6
03 18.04 Ю 3 10 км 8/1 600 м
[Sc diur, vesp Cs]
+34.0 +23.2 53 +44 +55 опасность
перегрева
1011.4 995.3
06 18.04 ЮВ 4 12 км 4/1 600 м
[Cu hum Cs]
+38.7 +23.2 41 +48 +60 опасность
перегрева
1007.5 991.7
09 18.04 ЮВ 4 12 км 8/1 600 м
[Cu med, cong Cs]
+39.3 +24.4 43 +51 +54 опасность
перегрева
1004.3 988.5
12 18.04 штиль 0 6000 м зарница 8/3 300 м
[Cb cap Ac und Ci ing]
+34.4 +25.0 58 +48 +48 опасность
перегрева
1006.2 990.2 +39.7
15 18.04 штиль 0 6000 м в посл. час гроза 10/5 600 м
[Sc Ac As]
+27.0 +24.8 88 +39 +39 очень
душно
1009.2 992.7 10
18 18.04 Ю 3 6000 м дымка {гроза} 8/0
[Ac und Cs]
+26.0 +23.8 88 +36 +36 очень
душно
1007.0 990.5 10
21 18.04 штиль 0 6000 м дымка 8/0
[Ac und Cs]
+26.0 +24.6 92 +37 +37 очень
душно
1006.8 990.3
00 19.04 штиль 0 8000 м дымка 3/0
[Cs]
+26.2 +25.0 93 +37 +40 очень
душно
1007.8 991.3 +24.9 10
03 19.04 З 8 9000 м мгла 3/0
[Cs]
+33.4 +23.2 55 +44 +47 опасность
перегрева
1008.9 992.8
06 19.04 З 2 10 км 3/3 600 м
[Cu med, cong]
+37.6 +23.2 44 +48 +62 опасность
перегрева
1005.7 989.8
09 19.04 ЮЗ 4 10 км 4/4 600 м
[Cu med, cong]
+37.8 +23.2 43 +47 +50 опасность
перегрева
1002.6 986.8
12 19.04 штиль 0 9000 м дымка 3/0
[Cs]
+31.2 +26.0 74 +47 +47 опасность
перегрева
1003.4 987.2 +39.4
15 19.04 штиль 0 7000 м дымка 3/0
[Cs]
+29.1 +25.6 81 +43 +43 опасность
перегрева
1006.8 990.5
18 19.04 штиль 0 7000 м дымка 3/0
[Cs]
+28.4 +25.3 83 +41 +41 опасность
перегрева
1005.9 989.6
21 19.04 штиль 0 7000 м дымка 3/0
[Cs]
+27.7 +25.6 88 +41 +41 опасность
перегрева
1004.8 988.4
00 20.04 штиль 0 9000 м дымка ясно +27.2 +25.5 90 +40 +42 очень
душно
1005.9 989.5 +27.0
03 20.04 З 3 9000 м мгла 3/0
[Cs]
+34.4 +25.0 58 +48 +61 опасность
перегрева
1007.1 991.0
06 20.04 Ю 2 10 км 5/1 600 м
[Cu hum Cs]
+39.2 +23.8 42 +50 +67 опасность
перегрева
1004.3 988.6
09 20.04 ЮВ 4 10 км гроза без осадков 8/1 300 м
[Cb cap Ci ing]
+37.0 +22.6 44 +46 +50 опасность
перегрева
1001.9 986.1
12 20.04 Ю 2 6000 м мгла {гроза} 8/0
[Cs]
+33.0 +24.5 61 +46 +46 опасность
перегрева
1002.9 986.8 +39.5
15 20.04 Ю 2 6000 м дымка ясно +30.3 +24.7 72 +43 +43 опасность
перегрева
1004.9 988.7
18 20.04 ЮЗ 2 6000 м дымка 8/0
[Cs]
+29.2 +24.6 76 +41 +41 опасность
перегрева
1004.8 988.5
21 20.04 Ю 2 6000 м дымка 8/0
[Cs]
+28.4 +25.6 85 +42 +42 опасность
перегрева
1004.1 987.8
00 21.04 ЮЗ 2 6000 м дымка 3/0
[Cs]
+28.5 +25.7 85 +42 +44 опасность
перегрева
1005.9 989.6 +27.0
03 21.04 Ю 5 10 км 3/0
[Cs]
+35.5 +25.8 57 +50 +59 опасность
перегрева
1006.8 990.8
06 21.04 Ю 3 12 км 4/4 600 м
[Cu Sc]
+38.0 +25.5 49 +52 +62 опасность
перегрева
1004.4 988.5
09 21.04 штиль 0 12 км 4/3 600 м
[Cu Sc]
+35.2 +26.2 60 +51 +57 опасность
перегрева
1001.7 985.8
12 21.04 ЮВ 7 8000 м мгла 6/4 600 м
[Cb cap Ac As Cs]
+32.7 +22.0 53 +41 +41 опасность
перегрева
1003.3 987.2 +39.0
15 21.04 штиль 0 7000 м дымка 4/0
[Cs]
+29.5 +23.7 71 +40 +40 очень
душно
1005.8 989.5
18 21.04 штиль 0 6000 м дымка ясно +28.0 +22.9 74 +37 +37 очень
душно
1004.8 988.5
21 21.04 штиль 0 6000 м дымка 5/0
[Ac und Cs]
+27.2 +23.6 81 +37 +37 очень
душно
1004.9 988.5
00 22.04 штиль 0 9000 м дымка 3/0
[Cs]
+26.8 +23.7 83 +37 +39 очень
душно
1007.0 990.6 +25.6
03 22.04 ЮЗ 5 10 км 3/0
[Cs]
+35.0 +24.4 54 +47 +55 опасность
перегрева
1007.8 991.8
06 22.04 ЮЗ 7 10 км 4/4 600 м
[Cu med, cong]
+38.2 +24.4 46 +50 +54 опасность
перегрева
1003.7 987.9
09 22.04 ЮЗ 6 10 км 3/3 600 м
[Cu med, cong]
+38.5 +23.1 41 +48 +50 опасность
перегрева
1002.8 987.1
12 22.04 ЮЗ 3 5000 м гроза, ливневой дождь 10/3 300 м
[Cb cap Ac As Cs]
+26.0 +24.6 92 +37 +37 очень
душно
1007.9 991.4 +39.3 17
15 22.04 штиль 0 6000 м дымка {гроза} 8/4 600 м
[Sc Ac As Cs]
+25.0 +22.3 85 +33 +33 очень
душно
1010.3 993.8 2
18 22.04 штиль 0 6000 м дымка {гроза} 9/3 600 м
[Sc Ac As Cs]
+25.0 +22.8 88 +33 +33 очень
душно
1007.7 991.2 19
21 22.04 штиль 0 6000 м дымка 9/4 600 м
[Sc Ac As Cs]
+24.8 +23.5 92 +33 +33 очень
душно
1008.4 991.8

 

Местоположение метеостанции Сурин Агромет (Таиланд): широта 14.88 долгота 103.45 высота над уровнем моря 145 м.

В архиве по умолчанию представлена погода в Сурин Агромете за последнюю неделю. Архивные данные за месяц целиком и за предыдущие месяцы, начиная с января 2011 года, Вы можете получить, выбрав интересующий диапазон дат из раскрывающегося списка и нажав кнопку "Ввод!".


*Определитесь, кто Вы:
робот инопланетянин человек

Внимание! Время в таблицах - всемирное. Для получения местного времени необходимо прибавить поправку, которая равна 7 ч.

Смотрите также архив погоды в соседних городах и на ближайших метеорологических станциях:

Погода в Сурине (Таиланд) (5 км)
Погода в Бури-Рам (Таиланд) (44 км)
Погода в Тха Тум (Таиланд) (55 км)
Погода в Нанг Ронг (Таиланд) (77 км)
Погода в Си Сакет Агромете (Таиланд) (88 км)
Погода в Рой Эт (Таиланд) (132 км)
Погода в Рой Эт Агромете (Таиланд) (134 км)
Погода в Чок Чай (Таиланд) (140 км)
Погода в Накхон Ратчасима (Таиланд) (148 км)
Погода в Косумпхисаи (Таиланд) (156 км)

Пояснения к столбцам:

Ветер - указаны скорость ветра в м/с - средняя за 10 мин, порывы в срок и между сроками (в фигурных скобках) и направление, откуда дует ветер: С - северный, СВ - северо-восточный, В - восточный, ЮВ - юго-восточный, Ю - южный, ЮЗ - юго-западный, З - западный, СЗ - северо-западный.
Видимость - горизонтальная дальность видимости в метрах или километрах. При видимости от 1 до 10 км при отсутствии осадков обычно наблюдается дымка, при ухудшении видимости до 1 км и менее - туман. В сухую погоду видимость может ухудшаться дымом, пылью или мглою.
Явления - указаны атмосферные явления, наблюдавшиеся в срок или в последний час перед сроком; фигурными скобками обозначены явления, наблюдавшиеся между сроками (за 1-3 часа до срока); квадратными скобками обозначены град или гололедные отложения с указанием их диаметра в мм.
Облачность - указаны через наклонную черту общая и нижняя облачность в баллах и высота нижней границы облаков в метрах; квадратными скобками обозначены формы облаков: Ci - перистые, Cs - перисто-слоистые, Cc - перисто-кучевые, Ac - высококучевые, As - высокослоистые, Sc - слоисто-кучевые, Ns - слоисто-дождевые, Cu - кучевые, Cb - кучево-дождевые. Подробнее классификацию облаков см. в Атласе облаков (PDF).
T - Температура воздуха - температура, измеренная на высоте 2 м над землей.
Td - Температура точки росы - температура, при понижении до которой содержащийся в воздухе водяной пар достигнет насыщения.
f - Относительная влажность воздуха - влажноcть воздуха, измеренная на высоте 2 м над землей.
Te - Эффективная температура - температура, которую ощущает одетый по сезону человек в тени. Характеристика душности погоды. При расчете учитывается влияние влажности воздуха и скорости ветра на теплоощущения человека.
Tes - Эффективная температура на солнце - температура, которую ощущает человек, с поправкой на солнечный нагрев. Характеристика знойности погоды. Зависит от высоты солнца над горизонтом, облачности и скорости ветра. Ночью, в пасмурную погоду, а также при ветре 12 м/с и более поправка равна нулю.
P - Атмосферное давление - приведенное к уровню моря атмосферное давление.
Po - Атмосферное давление - измеренное на уровне метеостанции атмосферное давление.
Tmin - Минимальная температура - минимум температуры воздуха на высоте 2 м над землей.
Tmax - Максимальная температура - максимум температуры воздуха на высоте 2 м над землей.
R - Количество осадков - Количество выпавших осадков за период времени, мм. При наведении курсора мыши на число - период времени, за который выпало указанное количество осадков.
R24 - Количество осадков - Количество выпавших осадков за 24 часа, мм.
S - Снежный покров - Высота снежного покрова, см. При наведении курсора мыши на число - состояние снежного покрова и степень покрытия местности в баллах.